Regional Weather Roundup
Issued by NWS Boston, MA

Home | Current Version | Previous Version | Text Only | Print | Product List | Glossary On
Versions: 1 2 3 4 5 6 7 8 9 10 11 12 13 14 15 16 17 18 19 20 21 22 23 24 25 26 27 28 29 30 31 32 33 34 35 36 37 38 39 40 41 42 43 44 45 46 47 48 49 50
000
ASUS41 KBOX 050910
RWRBOX

REGIONAL WEATHER ROUNDUP
NATIONAL WEATHER SERVICE TAUNTON MA
500 AM EDT TUE MAY 05 2015

NOTE:  "FAIR" INDICATES FEW OR NO CLOUDS BELOW 12,000 FEET WITH NO
SIGNIFICANT WEATHER AND/OR OBSTRUCTIONS TO VISIBILITY.  THE FOLLOWING
OBSERVATION LOCATIONS DO NOT REPORT PRESENT WEATHER...PROVINCETOWN...
SMITHFIELD...BLOCK ISLAND...KEENE...AND OXFORD.

MAZALL-051000-
EASTERN MASSACHUSETTS

CITY           SKY/WX    TMP DP  RH WIND       PRES   REMARKS
BOSTON         PTCLDY    67  43  41 SW17      30.09R
BEVERLY        PTCLDY    67  42  40 W8        30.08R
LAWRENCE       PTCLDY    66  44  45 SW7       30.10R
BEDFORD        PTCLDY    64  43  46 SW5       30.08R
BLUE HILL        N/A     65  43  44 SW14G24   30.10R
NORWOOD        PTCLDY    67  42  40 SW7       30.11R
MARSHFIELD     MOCLDY    64  45  48 SW10      30.12S
PLYMOUTH       PTCLDY    61  45  55 SW9       30.13S
TAUNTON        PTCLDY    61  45  55 SW7       30.12F
NEW BEDFORD    PTCLDY    56  44  64 SW8       30.13F
$$

MAZALL-051000-
CAPE COD AND THE ISLANDS

CITY           SKY/WX    TMP DP  RH WIND       PRES   REMARKS
FALMOUTH       PTCLDY    55  46  71 SW15      30.13
HYANNIS        PTCLDY    56  46  69 SW12      30.13S
CHATHAM        CLEAR     55  47  74 SW9G21    30.16S
PROVINCETOWN   MOCLDY    54  45  71 SW17      30.12S
NANTUCKET      MOCLDY    51  47  86 SW10      30.18S
MARTHAS VNYRD  MOCLDY   N/A N/A N/A SW13G20   30.17R
$$

MAZALL-051000-
CENTRAL AND WESTERN MASSACHUSETTS

CITY           SKY/WX    TMP DP  RH WIND       PRES   REMARKS
WORCESTER      PTCLDY    63  42  46 W12       30.13R
FITCHBURG      MOCLDY    66  46  48 W8        30.11R
ORANGE         CLOUDY    66  51  58 NW6       30.12R
SPRINGFIELD    CLOUDY    58  47  65 CALM      30.12R
WESTFIELD      CLOUDY    62  47  57 CALM      30.13R
NORTH ADAMS    CLOUDY    64  51  62 W7        30.15R
PITTSFIELD     CLOUDY    61  52  72 W9        30.15S
$$

RIZALL-051000-
RHODE ISLAND

CITY           SKY/WX    TMP DP  RH WIND       PRES   REMARKS
PROVIDENCE     PTCLDY    64  44  48 SW7       30.13S
NEWPORT        CLEAR     58  44  60 SW5       30.14F
BLOCK ISLAND   MOCLDY    52  43  71 SW16      30.18R
SMITHFIELD     PTCLDY    63  41  45 SW7       30.12S
WESTERLY       CLEAR     57  45  64 SW6       30.15F
$$

CTZALL-051000-
CONNECTICUT

CITY           SKY/WX    TMP DP  RH WIND       PRES   REMARKS
BRADLEY INTL   MOCLDY    64  45  49 W3        30.12R
HARTFORD       MOCLDY    61  46  57 S3        30.13R
BRIDGEPORT     PTCLDY    59  49  69 SW8       30.14F
DANBURY        PTCLDY    60  45  57 CALM      30.16R
GROTON         PTCLDY    60  45  57 SW7       30.14F
NEW HAVEN      PTCLDY    56  48  74 S5        30.14S
CHESTER        NOT AVBL
MERIDEN        MOCLDY    59  46  62 S3        30.14S
WILLIMANTIC    PTCLDY    65  45  48 S3        30.14R
OXFORD           N/A     61  45  55 CALM      30.16R
$$

MEZ002-015-021-024-NHZ003-005-008-011-012-014-VTZ005-008-051000-
NORTHERN NEW ENGLAND

CITY           SKY/WX    TMP DP  RH WIND       PRES   REMARKS
PORTLAND ME    MOCLDY    64  46  52 NW7       30.05R
BANGOR ME      CLOUDY    64  51  62 NW10      30.00R
CONCORD NH     CLOUDY    67  45  45 N5        30.09R
MANCHESTER NH  CLOUDY    66  44  45 SE3       30.07R
NASHUA NH      MOCLDY    63  47  55 CALM      30.09R
PORTSMOUTH NH  MOCLDY    65  44  46 W5        30.05R
JAFFREY NH     CLOUDY    60  46  59 S5        30.13R
KEENE NH       CLOUDY    66  50  55 W3        30.12R
BURLINGTON VT  PTCLDY    59  50  72 NW12      30.16R
MT. WASHINGTON FOG       37  37 100 NW55G66     N/A  VSB 0   WCI  21
$$

NYZ052-076-051000-
EASTERN NEW YORK

CITY           SKY/WX    TMP DP  RH WIND       PRES   REMARKS
ALBANY         CLOUDY    65  52  62 W8        30.15S
NEW YORK CITY  PTCLDY    68  46  45 SW6       30.15R
$$

ANZALL-051000-
MARINE OBSERVATIONS

STATION/POSITION TIME  TEMP    WIND        PRES    VSBY  WAVE
                       AIR SEA DIR/SP/G                  HT/PER
                 (UTC) (F)     (DEG/KT/KT) (MB)    (MI)  (FT/S)
BOSTON BUOY      0850   56 46  230/ 14/ 14   N/A           2/11
BUZZARDS BAY     0800          230/ 22/ 24   N/A
NANTUCKET SOUND  0850   53 48  240/ 14/ 17   N/A           2/ 4
MASS BAY-STELLWA 0804   54 46  220/ 16/ 16   N/A    1 7/8  3/ 4
ISLE OF SHOALS   0800   68     250/ 16/ 17   N/A
S OF BLOCK IS    0808      46                N/A           5/ 5
$$

......................KEY.........................
  SKY/WX - SKY CONDITION/PRESENT WEATHER
  TMP    - TEMPERATURE IN FAHRENHEIT
  DWPT   - DEWPOINT IN FAHRENHEIT
  RH     - RELATIVE HUMIDITY IN PERCENT
  WIND   - DIRECTION AND SPEED IN MPH
  PRES   - MEAN SEA LEVEL PRESSURE IN INCHES OF HG
  WCI    - WIND CHILL INDEX
  VSB    - VISIBILITY IN MILES
  HX     - HEAT INDEX
  TC     - TEMPERATURE IN CELSIUS
  VRB    - VARIABLE WIND DIRECTION
  N/A    - NOT AVAILABLE



USA.gov is the U.S. government's official web portal to all federal, state and local government web resources and services.